Other Public Products
Issued by NWS Grand Forks, ND

Home | Current Version | Previous Version | Graphics & Text | Print | Product List | Glossary On
Versions: 1 2 3 4 5 6 7 8 9 10 11 12 13 14 15 16 17 18 19 20 21 22 23 24 25 26 27 28 29 30 31 32 33 34 35 36 37 38 39 40 41 42 43 44 45 46 47 48 49 50
000
FPUS83 KFGF 251431
OPUFGF
PRAIRIE TO PINES WEATHER ROUNDUP
NATIONAL WEATHER SERVICE EASTERN NORTH DAKOTA/GRAND FORKS ND
900 AM CDT SUN SEP 25 2016

 **SATELLITE DATA USED TO AUGMENT SKY COVER AT AUTOMATED STATIONS**
 *****  WEATHER ACROSS EASTERN NORTH DAKOTA  *****

CITY           SKY/WX    TMP DP  RH WIND       PRES   REMARKS
GRAND FORKS    LGT RAIN  53  49  86 SW15      29.68S
GRAND FORKS AF LGT RAIN  54  52  94 W9        29.69R
GRAND CITY NWS NOT AVBL
BUXTON           N/A     60  59  97 SW9         N/A
DEVILS LAKE    LGT RAIN  52  50  93 NW21G31   29.77R
FARGO          PTSUNNY   56  50  80 SW17      29.76S
WAHPETON ARPT  SUNNY     57  50  77 W20G26    29.80R
$$

 *****  WEATHER ACROSS CENTRAL AND WESTERN NORTH DAKOTA  *****

CITY           SKY/WX    TMP DP  RH WIND       PRES   REMARKS
JAMESTOWN      CLOUDY    53  49  86 NW28G43   29.82R
BISMARCK       MOSUNNY   52  46  80 NW18G35   30.00R
MINOT          PTSUNNY   50  44  80 W30G39    29.96R
MINOT AFB      PTSUNNY   48  44  85 NW24G38   29.94R
GARRISON         N/A     48  44  86 NW28G36   29.99R
WILLISTON      SUNNY     48  38  68 NW21G28   30.15R
DICKINSON      SUNNY     45  39  79 W21G29    30.13R
HETTINGER      SUNNY     47  38  71 W22G28    30.18R
$$

 *****  OTHER OBSERVATIONS NORTHEAST NORTH DAKOTA  *****

CITY           SKY/WX    TMP DP  RH WIND       PRES   REMARKS
WALHALLA       RAIN      54  54 100 NW15G21   29.71R
LANGDON        RAIN      52  52 100 NW21G28   29.72R
CAVALIER       CLOUDY    55  54  94 NW15G22   29.68R FOG
GRAFTON        CLOUDY    54  54 100 S9        29.68R FOG
CANDO          LGT RAIN  50  50 100 NW21G30   29.80S
FORT TOTTEN    NOT AVBL
ROLLA          LGT RAIN  50  50 100 NW31G45   29.80R
RUGBY          LGT RAIN  50  50 100 NW24G32   29.85R
 ***** THE ABOVE OBSERVATIONS ARE NON NWS ARE NOT QUALITY
        CONTROLLED AND MAY MIS-REPORT RAIN FOR SNOW...
$$

 *****  OTHER OBSERVATIONS SOUTHEAST NORTH DAKOTA *****

CITY           SKY/WX    TMP DP  RH WIND       PRES   REMARKS
COOPERSTOWN    CLOUDY    54  52  94 NW23G36   29.77R FOG
VALLEY CITY    LGT RAIN  54  54 100 NW24G40   29.81R
OAKES          NOT AVBL
GWINNER        PTSUNNY   57  52  82 W18G28    29.84R
SHEYENNE NWR     N/A     56  51  84 W16       29.95
BUFFALO          N/A     54  51  88 W18G31      N/A
WYNDMERE         N/A     59  54  82 W12         N/A
 ***** THE ABOVE OBSERVATIONS ARE NON NWS ARE NOT QUALITY
       CONTROLLED AND MAY MIS-REPORT RAIN FOR SNOW...
$$

  *****  WEATHER ACROSS NORTHERN MINNESOTA  *****

CITY           SKY/WX    TMP DP  RH WIND       PRES   REMARKS
FLAG ISLAND    CLOUDY    63  61  94 SE8       29.66R
WARROAD        CLOUDY    63  59  88 S5        29.67S
ROSEAU         MOSUNNY   61  54  77 S15G25    29.68R
HALLOCK        MOSUNNY   55  54  94 S10       29.66S
THF RVR FALLS  SUNNY     54  49  83 SW15G23   29.72S
HALSTAD          N/A     55  50  83 SW17        N/A
FOSSTON        CLOUDY    54  48  82 S17G23    29.74F
BAUDETTE       CLOUDY    63  62  97 SE6       29.68F
WASKISH        CLOUDY    64  63  94 SW7       29.71R
CROOKSTON      SUNNY     54  50  87 SW18      29.72R
$$
  *****  WEATHER ACROSS CENTRAL AND WEST MINNESOTA  *****

CITY           SKY/WX    TMP DP  RH WIND       PRES   REMARKS
BEMIDJI        CLOUDY    58  52  83 SW16      29.75R
PARK RAPIDS    PTSUNNY   57  48  72 SW12      29.77F
WADENA         PTSUNNY   54  48  82 SW10G20   29.80S
DETROIT LAKES  CLOUDY    54  52  94 SW9       29.78S FOG
MOORHEAD       MOSUNNY   55  52  88 SW10      29.77S
FERGUS FALLS   CLOUDY    55  54  94 SW14      29.82R
ELBOW LAKE     CLOUDY    55  52  90 W12G17    29.82S
MORRIS MN      CLOUDY    55  54  94 S10       29.83S
STAPLES        CLOUDY    55  48  76 SW13G20   29.81S
WHEATON        CLOUDY    59  54  82 W12G26    29.83S
$$
  *****  WEATHER ELSEWHERE ACROSS MINNESOTA  *****

CITY           SKY/WX    TMP DP  RH WIND       PRES   REMARKS
DULUTH         LGT RAIN  63  62  97 SE10      29.82F FOG
INTRNTL FALLS  CLOUDY    63  61  93 VRB7      29.72F
ELY            DRIZZLE   61  57  88 SE12      29.81F
CLOQUET        RAIN      64  63  94 S9        29.83R
BRAINERD       CLOUDY    59  54  83 S9        29.80F
HIBBING        LGT RAIN  62  60  93 VRB5      29.79F FOG
ALEXANDRIA     CLOUDY    54  50  86 SW14      29.85F
SAINT CLOUD    CLOUDY    58  54  86 SW10      29.86S
MINNEAPOLIS    CLOUDY    63  59  87 W14       29.90R
$$

  *****  WEATHER ACROSS SOUTH DAKOTA  *****

CITY           SKY/WX    TMP DP  RH WIND       PRES   REMARKS
SIOUX FALLS    CLOUDY    57  49  74 W10G17    29.99S
BROOKINGS      CLOUDY    56  50  80 W20G28    29.94S
WATERTOWN      CLOUDY    55  51  86 W16G24    29.90R
HURON          CLOUDY    57  47  69 NW24G33   29.97S
SISSETON         N/A     58  53  84 NW12      29.83R
ABERDEEN       CLOUDY    57  49  74 W16G31    29.92R
MITCHELL       CLOUDY    59  47  64 W23G33    30.02R
PIERRE         SUNNY     57  44  62 NW30G43   30.07R
MOBRIDGE       CLOUDY    55  44  66 NW28G37   30.02R
RAPID CITY     SUNNY     52  31  44 NW26G35   30.29R
$$

  *****  SOME WEATHER IN NEARBY STATES *****

CITY           SKY/WX    TMP DP  RH WIND       PRES   REMARKS
GLASGOW MT     CLEAR     39  34  82 W7        30.28S
GREAT FALLS MT CLEAR     43  34  70 S10       30.36S
CHEYENNE WY    SUNNY     41  31  67 NW6       30.45R
SCOTTSBLUFF NE MOSUNNY   46  40  79 W7        30.40R
OMAHA NE       CLOUDY    59  50  72 NW7       30.11R
DES MOINES IA  CLOUDY    65  58  78 NW17      30.02R
DAVENPORT IA   SUNNY     72  66  81 S10       29.99F
CHICAGO IL     PTSUNNY   67  58  72 SE10      30.08S
EAU CLAIRE WI  RAIN      65  63  93 SE7       29.91F FOG
LA CROSSE WI   LGT RAIN  69  66  90 S13       29.93F FOG
$$

  *****  SOME NATIONAL WEATHER *****

CITY           SKY/WX    TMP DP  RH WIND       PRES   REMARKS
LA GUARDIA NY  SUNNY     60  41  49 NE9       30.19F
RALEIGH NC     CLOUDY    70  67  90 E8        30.16R
ATLANTA GA     PTSUNNY   80  68  66 E6        30.12R
NEW ORLEANS LA MOSUNNY   85  75  72 CALM      30.05R HX  93
OKLAHOMA CITY  CLOUDY    69  67  93 W5        30.08S
ALBUQUERQUE NM MOSUNNY   52  34  50 NW6       30.31R
SALT LAKE CITY CLEAR     47  41  80 SE6       30.45R
LOS ANGELES CA CLEAR     65  45  48 E5        30.00R
BOISE ID       CLEAR     45  35  68 S3        30.43R
SEATTLE WA     CLOUDY    61  51  70 CALM      30.39S
$$

*** WEATHER ACROSS MANITOBA...SASKATCHEWAN AND ONTARIO ***
                ***ONTARIO***

CITY           SKY/WX    TMP DP  RH WIND       PRES   REMARKS
GERALDTON      PTSUNNY   57  52  82 SE12      30.04F
THUNDER BAY    CLOUDY    61  55  82 E7        29.94F
SIOUX LOOKOUT  RAIN      57  57 100 SE10G17   29.76F FOG
TORONTO        PTSUNNY   59  43  55 E5        30.26F
BIG TROUT LK   CLOUDY    54  50  87 SE15G23   29.84F
PICKLE LAKE    CLOUDY    55  54  94 SE14      29.85F
DRYDEN         RAIN      59  59 100 SE12      29.73  FOG
KENORA         PTSUNNY   61  59  94 SE10      29.68F
$$
                *** MANITOBA***

CITY           SKY/WX    TMP DP  RH WIND       PRES   REMARKS
BRANDON        LGT RAIN  52  48  87 NW21G29   29.82R
DAUPHIN        LGT RAIN  52  50  93 W12       29.78S
ISLAND LAKE    LGT RAIN  57  57 100 SE13G20   29.61S
PILOT MOUND      N/A     50  50 100 NW23        N/A
THE PAS        CLOUDY    52  48  87 NW20G28   29.78R
THOMPSON       LGT RAIN  48  48 100 NW8       29.68S
WINNIPEG       CLOUDY    55  54  94 N22G28    29.65R
LYNN LAKE      CLOUDY    50  48  93 NW6       29.75F
CHURCHILL      LGT RAIN  48  43  81 SE15      29.76F
GILLAM         LGT RAIN  48  48 100 E6        29.66F
$$
                ***SASKATCHEWAN***

CITY           SKY/WX    TMP DP  RH WIND       PRES   REMARKS
ESTEVAN        NOT AVBL
KINDERSLEY     CLEAR     37  32  81 NW6       30.22S
LLOYDMINSTER   PTCLDY    39  32  75 W12       30.18S
PRINCE ALBERT  PTCLDY    39  36  87 W8        30.05R
REGINA         MOSUNNY   43  37  81 W15G21    30.11R
YORKTON        SUNNY     48  41  76 NW17G25   29.92R   C1F1C2F2C3F3C4F4C5F5C6F6C7F7C8F8C9F9CaFaCbFbCcFcCdFdCe!



USA.gov is the U.S. government's official web portal to all federal, state and local government web resources and services.